CZ-3C DEB, 40855

Orbit data source: Space-Track

CZ-3C DEB, 40855 is space debris in HEO originally from a launch on Fri, 24 Feb 2012 UTC launched from the Xichang Space Center, China (XSC). Debris objects in space refer to the collection of defunct objects orbiting the Earth. Examples of debris include non-operational satellites, rocket bodies, and fragments generated from explosions, collisions, or faulty payload assembly.

Loading next visibility...
Identifier
40855, 2012-008V
Orbit
HEO
Country
Flag of CNCN / PRC
Related business
Manufacturer
CALT
Mission
Spacecraft
Bus & Motor
Unknown
Mass
Unknown
Launch date (UTC)
2012-02-24 (14 years ago)
Launch vehicle
Unknown
Launch site
Xichang Space Center, China (XSC)
Object type
Payload
Rocket body
Debris
Shape & HBR
Unknown shape, 0.2 m
Radar Cross Section
Medium (>0.1 m² and <1 m²)

Expand to show TLE details & history
Last TLE update: 21 hours ago

TLE from 21 hours ago
0 CZ-3C DEB
1 40855U 12008V   26034.41905009 -.00000125  00000-0  22059-2 0  9995
2 40855  22.6925  22.2911 7059824 132.9565   5.4257  2.32100975 95234
Epoch: 2026-02-03T10:03Z
TLE epoch observation values (Epoch: 2026-02-03T10:03:25.927Z)
Latitude
1.83998°
Longitude
-86.51802°
Altitude
1,535.55 km
Speed
9.175 km/s
True Right ascension
13h 11m 45s
True Declination
1° 49' 48"
Sunlit
Object was in daylight at epoch
Visualization orbit readout
Latitude
Unknown
Longitude
Unknown
Altitude
Unknown
Speed
Unknown
Apparent Right ascension
Unknown
Apparent Declination
Unknown
Sunlit
N/A
Visualization observer readout
Local Sidereal Time
09:00:40
Azimuth
Unknown
Elevation
Unknown
Doppler factor
Unknown
Orbital elements
Apogee altitude
34,736.587 km
Perigee altitude
707.782 km
Semi-major axis
24,100.321 km
Eccentricity
0.70598
Inclination
22.6925°
RAAN
22.2911°
Arg. of periapsis
132.9565°
True anomaly
41.27453°
Mean anomaly
5.4257°
Eccentric anomaly
17.77259°
Mean motion
0.58011 °/min
Orbital period
620.57 mins
BSTAR
0.0022059
Loading maneuver chart data...
Computing Atmospheric mass density...
Loading historical data...
Loading historical data...
Loading historical data...
Loading historical data...
Loading historical data...
Loading historical data...
Loading historical data...

Documentation

Showing up to 5 results
|